Date,TemperatureHighF,TemperatureAvgF,TemperatureLowF,DewpointHighF,DewpointAvgF,DewpointLowF,HumidityHigh,HumidityAvg,HumidityLow,PressureMaxIn,PressureMinIn,WindSpeedMaxMPH,WindSpeedAvgMPH,GustSpeedMaxMPH,PrecipitationSumIn
2013-1-5,33.0,30.7,26.0,29.0,25.2,19.0,84,80,73,30.21,30.10,7,3,8,0.00
2013-1-6,34.0,29.4,18.0,29.0,24.1,12.0,84,81,77,30.34,29.98,11,3,11,0.00
2013-1-7,34.0,23.2,12.0,26.0,17.6,8.0,85,79,71,30.42,30.20,8,-6,8,0.00
2013-1-8,37.0,27.3,18.0,29.0,21.5,14.0,86,78,71,30.27,30.18,5,-6,6,0.00
2013-1-9,46.0,38.0,28.0,36.0,30.7,23.0,84,75,65,30.48,30.13,7,2,11,0.00
2013-1-10,39.0,31.5,25.0,35.0,25.3,19.0,86,78,70,30.52,30.07,7,1,8,0.00
2013-1-11,53.0,47.5,39.0,51.0,43.4,35.0,92,86,77,30.06,29.79,7,2,14,0.00
2013-1-12,58.0,49.1,41.0,52.0,44.8,38.0,91,85,76,29.99,29.78,6,1,7,0.00
2013-1-13,51.0,34.9,22.0,48.0,31.8,19.0,90,89,87,30.19,29.75,11,1,58,0.00
2013-1-14,22.0,17.5,15.0,19.0,13.7,11.0,87,85,83,30.46,30.19,0,0,0,0.00
2013-1-15,27.0,20.9,14.0,22.0,15.7,10.0,88,81,73,30.41,30.13,5,0,5,0.00
2013-1-16,34.0,27.2,21.0,25.0,20.5,16.0,86,76,63,30.13,29.93,7,2,14,0.00
2013-1-17,35.0,29.6,20.0,31.0,22.0,12.0,85,73,61,30.40,30.05,4,0,6,0.00
2013-1-18,37.0,27.2,18.0,26.0,18.2,12.0,81,69,56,30.46,30.09,11,2,13,0.00
2013-1-19,47.0,40.7,36.0,35.0,29.7,26.0,72,64,57,30.09,29.84,13,5,19,0.00
2013-1-20,42.0,24.5,18.0,34.0,12.6,6.0,72,60,55,30.27,29.85,13,4,17,0.00
2013-1-21,20.0,13.4,7.0,9.0,2.3,-5.0,72,60,51,30.24,30.11,14,4,15,0.00
2013-1-22,13.0,7.6,3.0,1.0,-3.5,-7.0,69,60,52,30.37,30.24,10,3,21,0.00
2013-1-23,20.0,13.7,8.0,11.0,3.3,-3.0,70,62,56,30.34,30.10,6,1,10,0.00
2013-1-24,21.0,15.9,8.0,11.0,6.0,1.0,76,65,53,30.60,30.15,6,0,7,0.00
2013-1-25,25.0,20.3,17.0,19.0,12.5,8.0,78,71,63,30.43,30.03,4,0,5,0.00
2013-1-26,28.0,24.1,21.0,19.0,16.4,14.0,78,72,66,30.43,30.07,5,0,5,0.00
2013-1-27,34.0,24.9,18.0,31.0,18.4,12.0,87,76,71,30.43,30.07,8,1,8,0.00
2013-1-28,48.0,42.4,34.0,45.0,39.9,31.0,91,90,87,30.09,29.95,9,2,29,0.00
2013-1-29,58.0,51.1,43.0,55.0,48.8,41.0,93,91,88,29.98,29.43,12,2,16,0.00
2013-1-30,61.0,44.3,28.0,56.0,41.3,24.0,93,89,84,29.55,29.27,11,4,16,0.00
2013-1-31,28.0,17.9,10.0,24.0,11.5,2.0,86,76,70,30.08,29.55,13,6,16,0.00